Time,TemperatureF,DewpointF,PressureIn,WindDirection,WindDirectionDegrees,WindSpeedMPH,WindSpeedGustMPH,Humidity,HourlyPrecipIn,Conditions,Clouds,dailyrainin,SoftwareType,DateUTC
2013-09-09 00:08:00,75.7,72.0,29.82,East,92,0.0,-999.0,88,-99.99,,,0.00,weatherlink.com 1.10,2013-09-09 05:08:00,
2013-09-09 00:23:00,75.3,72.0,29.82,East,92,0.0,-999.0,89,-99.99,,,0.00,weatherlink.com 1.10,2013-09-09 05:23:00,
2013-09-09 00:38:00,75.1,72.0,29.82,East,92,0.0,-999.0,90,-99.99,,,0.00,weatherlink.com 1.10,2013-09-09 05:38:00,
2013-09-09 00:53:00,74.8,72.0,29.82,East,92,0.0,-999.0,90,-99.99,,,0.00,weatherlink.com 1.10,2013-09-09 05:53:00,
2013-09-09 01:08:00,74.3,72.0,29.82,East,92,0.0,-999.0,91,-99.99,,,0.00,weatherlink.com 1.10,2013-09-09 06:08:00,
2013-09-09 01:24:00,73.7,71.0,29.82,East,92,0.0,-999.0,92,-99.99,,,0.00,weatherlink.com 1.10,2013-09-09 06:24:00,
2013-09-09 01:39:00,73.4,71.0,29.82,East,92,0.0,-999.0,92,-99.99,,,0.00,weatherlink.com 1.10,2013-09-09 06:39:00,
2013-09-09 01:54:00,73.1,71.0,29.82,East,92,0.0,-999.0,92,-99.99,,,0.00,weatherlink.com 1.10,2013-09-09 06:54:00,
2013-09-09 02:09:00,72.8,71.0,29.82,East,92,0.0,-999.0,93,-99.99,,,0.00,weatherlink.com 1.10,2013-09-09 07:09:00,
2013-09-09 02:24:00,72.7,71.0,29.82,East,92,0.0,-999.0,93,-99.99,,,0.00,weatherlink.com 1.10,2013-09-09 07:24:00,
2013-09-09 02:39:00,72.5,71.0,29.82,East,92,0.0,-999.0,94,-99.99,,,0.00,weatherlink.com 1.10,2013-09-09 07:39:00,
2013-09-09 02:54:00,72.3,71.0,29.81,East,92,0.0,-999.0,94,-99.99,,,0.00,weatherlink.com 1.10,2013-09-09 07:54:00,
2013-09-09 03:09:00,72.0,70.0,29.81,East,92,0.0,-999.0,94,-99.99,,,0.00,weatherlink.com 1.10,2013-09-09 08:09:00,
2013-09-09 03:24:00,72.1,71.0,29.81,East,92,0.0,-999.0,95,-99.99,,,0.00,weatherlink.com 1.10,2013-09-09 08:24:00,
2013-09-09 03:39:00,72.3,71.0,29.81,East,92,0.0,-999.0,95,-99.99,,,0.00,weatherlink.com 1.10,2013-09-09 08:39:00,
2013-09-09 03:54:00,72.4,71.0,29.81,East,92,0.0,-999.0,94,-99.99,,,0.00,weatherlink.com 1.10,2013-09-09 08:54:00,
2013-09-09 04:10:00,72.5,71.0,29.81,East,92,0.0,-999.0,94,-99.99,,,0.00,weatherlink.com 1.10,2013-09-09 09:10:00,
2013-09-09 04:25:00,72.6,71.0,29.81,East,98,0.0,-999.0,94,-99.99,,,0.00,weatherlink.com 1.10,2013-09-09 09:25:00,
2013-09-09 04:40:00,73.7,71.0,29.82,ESE,104,0.0,-999.0,91,-99.99,,,0.00,weatherlink.com 1.10,2013-09-09 09:40:00,
2013-09-09 04:55:00,73.8,71.0,29.82,ESE,111,0.0,-999.0,90,-99.99,,,0.00,weatherlink.com 1.10,2013-09-09 09:55:00,
2013-09-09 05:10:00,73.8,71.0,29.82,ESE,111,0.0,-999.0,90,-99.99,,,0.00,weatherlink.com 1.10,2013-09-09 10:10:00,
2013-09-09 05:25:00,73.7,71.0,29.82,ESE,111,0.0,-999.0,90,-99.99,,,0.00,weatherlink.com 1.10,2013-09-09 10:25:00,
2013-09-09 05:40:00,73.9,71.0,29.82,SE,132,0.0,-999.0,89,-99.99,,,0.00,weatherlink.com 1.10,2013-09-09 10:40:00,
2013-09-09 05:55:00,73.9,71.0,29.82,SSE,162,0.0,-999.0,89,-99.99,,,0.00,weatherlink.com 1.10,2013-09-09 10:55:00,
2013-09-09 06:10:00,73.9,71.0,29.82,SSE,159,0.0,-999.0,89,-99.99,,,0.00,weatherlink.com 1.10,2013-09-09 11:10:00,
2013-09-09 06:25:00,73.7,70.0,29.82,South,185,0.0,-999.0,89,-99.99,,,0.00,weatherlink.com 1.10,2013-09-09 11:25:00,
2013-09-09 06:40:00,73.5,70.0,29.82,SSW,211,0.0,-999.0,89,-99.99,,,0.00,weatherlink.com 1.10,2013-09-09 11:40:00,
2013-09-09 06:55:00,73.2,70.0,29.83,SSW,211,0.0,-999.0,90,-99.99,,,0.00,weatherlink.com 1.10,2013-09-09 11:55:00,
2013-09-09 07:10:00,73.8,70.0,29.83,SSW,203,0.0,-999.0,87,-99.99,,,0.00,weatherlink.com 1.10,2013-09-09 12:10:00,
2013-09-09 07:26:00,74.3,70.0,29.84,SW,216,0.0,-999.0,85,-99.99,,,0.00,weatherlink.com 1.10,2013-09-09 12:26:00,
2013-09-09 07:41:00,75.1,69.0,29.84,SW,229,3.0,-999.0,82,-99.99,,,0.00,weatherlink.com 1.10,2013-09-09 12:41:00,
2013-09-09 07:56:00,75.9,69.0,29.84,SW,234,6.0,-999.0,80,-99.99,,,0.00,weatherlink.com 1.10,2013-09-09 12:56:00,
2013-09-09 08:11:00,76.8,69.0,29.84,SSW,195,4.0,-999.0,77,-99.99,,,0.00,weatherlink.com 1.10,2013-09-09 13:11:00,
2013-09-09 08:26:00,77.8,69.0,29.84,WSW,258,2.0,-999.0,74,-99.99,,,0.00,weatherlink.com 1.10,2013-09-09 13:26:00,
2013-09-09 08:41:00,78.9,69.0,29.84,WSW,238,7.0,-999.0,71,-99.99,,,0.00,weatherlink.com 1.10,2013-09-09 13:41:00,
2013-09-09 08:56:00,79.7,69.0,29.85,WSW,242,6.0,-999.0,69,-99.99,,,0.00,weatherlink.com 1.10,2013-09-09 13:56:00,
2013-09-09 09:11:00,80.2,69.0,29.85,SW,234,9.0,-999.0,68,-99.99,,,0.00,weatherlink.com 1.10,2013-09-09 14:11:00,
2013-09-09 09:42:00,81.8,69.0,29.85,SW,222,4.0,-999.0,66,-99.99,,,0.00,weatherlink.com 1.10,2013-09-09 14:42:00,
2013-09-09 09:57:00,83.0,70.0,29.85,SW,227,4.0,-999.0,64,-99.99,,,0.00,weatherlink.com 1.10,2013-09-09 14:57:00,
2013-09-09 10:12:00,84.0,69.0,29.85,SW,236,5.0,-999.0,61,-99.99,,,0.00,weatherlink.com 1.10,2013-09-09 15:12:00,
2013-09-09 10:27:00,85.6,70.0,29.85,SW,214,7.0,-999.0,60,-99.99,,,0.00,weatherlink.com 1.10,2013-09-09 15:27:00,
2013-09-09 10:42:00,86.9,69.0,29.85,SSW,199,6.0,-999.0,56,-99.99,,,0.00,weatherlink.com 1.10,2013-09-09 15:42:00,
2013-09-09 10:57:00,88.1,69.0,29.84,SW,234,3.0,-999.0,53,-99.99,,,0.00,weatherlink.com 1.10,2013-09-09 15:57:00,
2013-09-09 11:12:00,89.2,69.0,29.84,WSW,250,10.0,-999.0,51,-99.99,,,0.00,weatherlink.com 1.10,2013-09-09 16:12:00,
2013-09-09 11:27:00,90.1,68.0,29.84,WSW,246,8.0,-999.0,49,-99.99,,,0.00,weatherlink.com 1.10,2013-09-09 16:27:00,
2013-09-09 11:42:00,91.4,68.0,29.84,SSW,210,5.0,-999.0,47,-99.99,,,0.00,weatherlink.com 1.10,2013-09-09 16:42:00,
2013-09-09 11:58:00,92.1,68.0,29.83,SW,221,3.0,-999.0,45,-99.99,,,0.00,weatherlink.com 1.10,2013-09-09 16:58:00,
2013-09-09 12:13:00,92.9,67.0,29.83,SSW,210,5.0,-999.0,43,-99.99,,,0.00,weatherlink.com 1.10,2013-09-09 17:13:00,
2013-09-09 12:28:00,94.2,67.0,29.83,WSW,245,5.0,-999.0,41,-99.99,,,0.00,weatherlink.com 1.10,2013-09-09 17:28:00,
2013-09-09 12:43:00,95.0,67.0,29.82,SW,222,7.0,-999.0,40,-99.99,,,0.00,weatherlink.com 1.10,2013-09-09 17:43:00,
2013-09-09 12:58:00,95.3,68.0,29.82,SSW,213,8.0,-999.0,41,-99.99,,,0.00,weatherlink.com 1.10,2013-09-09 17:58:00,
2013-09-09 13:13:00,95.8,67.0,29.82,West,271,7.0,-999.0,39,-99.99,,,0.00,weatherlink.com 1.10,2013-09-09 18:13:00,
2013-09-09 13:28:00,96.2,67.0,29.82,West,259,5.0,-999.0,39,-99.99,,,0.00,weatherlink.com 1.10,2013-09-09 18:28:00,
2013-09-09 13:43:00,96.9,67.0,29.82,WSW,252,6.0,-999.0,37,-99.99,,,0.00,weatherlink.com 1.10,2013-09-09 18:43:00,
2013-09-09 13:58:00,97.3,68.0,29.81,WSW,243,6.0,-999.0,38,-99.99,,,0.00,weatherlink.com 1.10,2013-09-09 18:58:00,
2013-09-09 14:14:00,98.1,67.0,29.81,WSW,257,5.0,-999.0,36,-99.99,,,0.00,weatherlink.com 1.10,2013-09-09 19:14:00,
2013-09-09 14:29:00,98.3,66.0,29.81,SW,219,8.0,-999.0,35,-99.99,,,0.00,weatherlink.com 1.10,2013-09-09 19:29:00,
2013-09-09 14:44:00,98.7,68.0,29.80,West,269,8.0,-999.0,37,-99.99,,,0.00,weatherlink.com 1.10,2013-09-09 19:44:00,
2013-09-09 14:59:00,98.7,66.0,29.80,South,189,13.0,-999.0,34,-99.99,,,0.00,weatherlink.com 1.10,2013-09-09 19:59:00,
2013-09-09 15:14:00,98.9,64.0,29.80,SSW,206,12.0,-999.0,32,-99.99,,,0.00,weatherlink.com 1.10,2013-09-09 20:14:00,
2013-09-09 15:29:00,99.5,65.0,29.79,SW,228,9.0,-999.0,32,-99.99,,,0.00,weatherlink.com 1.10,2013-09-09 20:29:00,
2013-09-09 15:44:00,99.2,65.0,29.79,WSW,249,8.0,-999.0,33,-99.99,,,0.00,weatherlink.com 1.10,2013-09-09 20:44:00,
2013-09-09 15:59:00,99.2,66.0,29.79,SSW,204,6.0,-999.0,34,-99.99,,,0.00,weatherlink.com 1.10,2013-09-09 20:59:00,
2013-09-09 16:14:00,99.0,66.0,29.79,SSW,208,11.0,-999.0,34,-99.99,,,0.00,weatherlink.com 1.10,2013-09-09 21:14:00,
2013-09-09 16:29:00,99.0,64.0,29.79,SSW,207,11.0,-999.0,32,-99.99,,,0.00,weatherlink.com 1.10,2013-09-09 21:29:00,
2013-09-09 16:44:00,98.8,66.0,29.79,SSW,211,11.0,-999.0,34,-99.99,,,0.00,weatherlink.com 1.10,2013-09-09 21:44:00,
2013-09-09 17:00:00,98.4,65.0,29.79,SW,236,7.0,-999.0,33,-99.99,,,0.00,weatherlink.com 1.10,2013-09-09 22:00:00,
2013-09-09 17:15:00,98.1,65.0,29.79,SW,216,13.0,-999.0,34,-99.99,,,0.00,weatherlink.com 1.10,2013-09-09 22:15:00,
2013-09-09 17:30:00,97.4,66.0,29.80,SW,215,7.0,-999.0,35,-99.99,,,0.00,weatherlink.com 1.10,2013-09-09 22:30:00,
2013-09-09 17:45:00,96.8,65.0,29.80,South,188,8.0,-999.0,35,-99.99,,,0.00,weatherlink.com 1.10,2013-09-09 22:45:00,
2013-09-09 18:00:00,96.3,65.0,29.80,SSW,208,9.0,-999.0,36,-99.99,,,0.00,weatherlink.com 1.10,2013-09-09 23:00:00,
2013-09-09 18:15:00,95.5,66.0,29.80,WSW,248,6.0,-999.0,38,-99.99,,,0.00,weatherlink.com 1.10,2013-09-09 23:15:00,
2013-09-09 18:30:00,94.9,66.0,29.80,SW,229,4.0,-999.0,39,-99.99,,,0.00,weatherlink.com 1.10,2013-09-09 23:30:00,
2013-09-09 18:45:00,94.1,66.0,29.81,SSW,213,6.0,-999.0,40,-99.99,,,0.00,weatherlink.com 1.10,2013-09-09 23:45:00,
2013-09-09 19:00:00,92.8,65.0,29.81,SSW,208,6.0,-999.0,40,-99.99,,,0.00,weatherlink.com 1.10,2013-09-10 00:00:00,
2013-09-09 19:15:00,91.9,65.0,29.81,SSW,203,2.0,-999.0,41,-99.99,,,0.00,weatherlink.com 1.10,2013-09-10 00:15:00,
2013-09-09 19:30:00,91.1,65.0,29.81,SSW,202,1.0,-999.0,42,-99.99,,,0.00,weatherlink.com 1.10,2013-09-10 00:30:00,
2013-09-09 19:45:00,89.9,65.0,29.82,SSW,194,0.0,-999.0,44,-99.99,,,0.00,weatherlink.com 1.10,2013-09-10 00:45:00,
2013-09-09 20:00:00,88.5,66.0,29.82,SSW,193,4.0,-999.0,47,-99.99,,,0.00,weatherlink.com 1.10,2013-09-10 01:00:00,
2013-09-09 20:15:00,88.0,65.0,29.82,SSW,197,5.0,-999.0,47,-99.99,,,0.00,weatherlink.com 1.10,2013-09-10 01:15:00,
2013-09-09 20:31:00,87.5,65.0,29.83,SSW,213,4.0,-999.0,48,-99.99,,,0.00,weatherlink.com 1.10,2013-09-10 01:31:00,
2013-09-09 20:46:00,87.2,65.0,29.83,SSW,201,4.0,-999.0,48,-99.99,,,0.00,weatherlink.com 1.10,2013-09-10 01:46:00,
2013-09-09 21:01:00,87.1,65.0,29.84,SW,219,5.0,-999.0,48,-99.99,,,0.00,weatherlink.com 1.10,2013-09-10 02:01:00,
2013-09-09 21:16:00,86.5,65.0,29.85,SSW,212,3.0,-999.0,48,-99.99,,,0.00,weatherlink.com 1.10,2013-09-10 02:16:00,
2013-09-09 21:31:00,85.8,64.0,29.85,South,184,1.0,-999.0,49,-99.99,,,0.00,weatherlink.com 1.10,2013-09-10 02:31:00,
2013-09-09 21:46:00,85.2,64.0,29.85,SSW,212,6.0,-999.0,49,-99.99,,,0.00,weatherlink.com 1.10,2013-09-10 02:46:00,
2013-09-09 22:01:00,85.1,64.0,29.85,SSW,196,6.0,-999.0,49,-99.99,,,0.00,weatherlink.com 1.10,2013-09-10 03:01:00,
2013-09-09 22:16:00,84.5,64.0,29.86,SW,219,7.0,-999.0,50,-99.99,,,0.00,weatherlink.com 1.10,2013-09-10 03:16:00,
2013-09-09 22:31:00,84.2,64.0,29.86,South,190,4.0,-999.0,50,-99.99,,,0.00,weatherlink.com 1.10,2013-09-10 03:31:00,
2013-09-09 22:46:00,83.8,64.0,29.86,SW,229,6.0,-999.0,51,-99.99,,,0.00,weatherlink.com 1.10,2013-09-10 03:46:00,
2013-09-09 23:01:00,83.8,63.0,29.86,South,186,9.0,-999.0,50,-99.99,,,0.00,weatherlink.com 1.10,2013-09-10 04:01:00,
2013-09-09 23:16:00,84.0,63.0,29.87,SSW,212,7.0,-999.0,50,-99.99,,,0.00,weatherlink.com 1.10,2013-09-10 04:16:00,
2013-09-09 23:31:00,83.7,64.0,29.87,SSW,198,8.0,-999.0,51,-99.99,,,0.00,weatherlink.com 1.10,2013-09-10 04:31:00,
2013-09-09 23:47:00,83.4,63.0,29.87,SSW,211,12.0,-999.0,51,-99.99,,,0.00,weatherlink.com 1.10,2013-09-10 04:47:00,